When you browse on this site, cookies collect data to enhance your experience and personalize the content and advertising you see.
Visit our Privacy Policy to learn more. By continuing to use the site, you agree to this use of cookies and data.
  • In Hungary
  • List of Countries
  • For 7 days
  • Water Temperature
  • Satellite Maps
  • Weather Map
  • News
  • Weather Widgets
  • user-avatar
    Login

    Hourly Weather Marechal Candido Rondon

    Today, 18 November, Sunday

    Time Temperature Precipitation Wind Pressure Humidity
    00:00 +26°C° 0 mm 3 mps 721 mmHg 85%
    01:00 +26°C° 0 mm 3 mps 721 mmHg 86%
    02:00 +25°C° 0 mm 3 mps 720 mmHg 87%
    03:00 +25°C° 0 mm 3 mps 720 mmHg 88%
    04:00 +25°C° 0 mm 3 mps 720 mmHg 88%
    05:00 +25°C° 0 mm 3 mps 721 mmHg 89%
    06:00 +25°C° 2.3 mm 2 mps 721 mmHg 87%
    07:00 +26°C° 2.3 mm 2 mps 721 mmHg 86%
    08:00 +27°C° 2.3 mm 2 mps 722 mmHg 84%
    09:00 +27°C° 3 mm 2 mps 722 mmHg 85%
    10:00 +27°C° 3 mm 3 mps 722 mmHg 85%
    11:00 +26°C° 3 mm 3 mps 723 mmHg 86%
    12:00 +27°C° 0.7 mm 4 mps 722 mmHg 83%
    13:00 +27°C° 0.7 mm 4 mps 722 mmHg 81%
    14:00 +27°C° 0.7 mm 4 mps 722 mmHg 78%
    15:00 +26°C° 0 mm 4 mps 722 mmHg 79%
    16:00 +25°C° 0 mm 3 mps 722 mmHg 81%
    17:00 +25°C° 0 mm 2 mps 721 mmHg 82%
    18:00 +24°C° 0 mm 2 mps 722 mmHg 83%
    19:00 +23°C° 0 mm 2 mps 722 mmHg 83%
    20:00 +23°C° 0 mm 2 mps 723 mmHg 84%
    21:00 +21°C° 0 mm 2 mps 723 mmHg 85%
    22:00 +21°C° 0 mm 2 mps 723 mmHg 85%
    23:00 +20°C° 0 mm 2 mps 723 mmHg 86%

    Tomorrow, 19 November, Monday

    Time Temperature Precipitation Wind Pressure Humidity
    00:00 +20°C° 0 mm 2 mps 723 mmHg 87%
    01:00 +20°C° 0 mm 2 mps 723 mmHg 88%
    02:00 +20°C° 0 mm 2 mps 722 mmHg 89%
    03:00 +20°C° 0 mm 2 mps 723 mmHg 90%
    04:00 +19°C° 0 mm 2 mps 723 mmHg 90%
    05:00 +19°C° 0 mm 2 mps 723 mmHg 90%
    06:00 +21°C° 0 mm 2 mps 723 mmHg 83%
    07:00 +24°C° 0 mm 3 mps 724 mmHg 75%
    08:00 +25°C° 0 mm 3 mps 724 mmHg 68%
    09:00 +27°C° 0 mm 2 mps 724 mmHg 61%
    10:00 +29°C° 0 mm 2 mps 724 mmHg 55%
    11:00 +31°C° 0 mm 2 mps 724 mmHg 48%
    12:00 +32°C° 0 mm 2 mps 723 mmHg 45%
    13:00 +32°C° 0 mm 2 mps 723 mmHg 42%
    14:00 +34°C° 0 mm 2 mps 722 mmHg 39%
    15:00 +32°C° 0 mm 1 mps 722 mmHg 43%
    16:00 +32°C° 0 mm 1 mps 721 mmHg 48%
    17:00 +31°C° 0 mm 1 mps 721 mmHg 52%
    18:00 +29°C° 0 mm 1 mps 722 mmHg 58%
    19:00 +27°C° 0 mm 1 mps 722 mmHg 64%
    20:00 +25°C° 0 mm 2 mps 723 mmHg 70%
    21:00 +24°C° 0 mm 2 mps 723 mmHg 74%
    22:00 +24°C° 0 mm 2 mps 724 mmHg 78%
    23:00 +22°C° 0 mm 3 mps 724 mmHg 83%

    Day after tomorrow, 20 November, Tuesday

    Time Temperature Precipitation Wind Pressure Humidity
    00:00 +21°C° 0 mm 3 mps 724 mmHg 83%
    01:00 +21°C° 0 mm 3 mps 723 mmHg 83%
    02:00 +20°C° 0 mm 3 mps 723 mmHg 84%
    03:00 +20°C° 0 mm 2 mps 723 mmHg 84%
    04:00 +19°C° 0 mm 2 mps 724 mmHg 85%
    05:00 +18°C° 0 mm 2 mps 724 mmHg 86%
    06:00 +20°C° 0 mm 2 mps 724 mmHg 76%
    07:00 +23°C° 0 mm 2 mps 725 mmHg 67%
    08:00 +25°C° 0 mm 2 mps 725 mmHg 58%
    09:00 +27°C° 0 mm 2 mps 725 mmHg 53%
    10:00 +29°C° 0 mm 2 mps 725 mmHg 47%
    11:00 +31°C° 0 mm 2 mps 725 mmHg 42%
    12:00 +32°C° 0 mm 2 mps 724 mmHg 40%
    13:00 +32°C° 0 mm 2 mps 724 mmHg 38%
    14:00 +34°C° 0 mm 2 mps 723 mmHg 36%
    15:00 +32°C° 0 mm 1 mps 722 mmHg 40%
    16:00 +32°C° 0 mm 1 mps 722 mmHg 44%
    17:00 +31°C° 0 mm 1 mps 722 mmHg 47%
    18:00 +29°C° 0 mm 1 mps 722 mmHg 52%
    19:00 +27°C° 0 mm 1 mps 722 mmHg 56%
    20:00 +25°C° 0 mm 1 mps 723 mmHg 60%
    21:00 +24°C° 0 mm 1 mps 723 mmHg 65%
    22:00 +24°C° 0 mm 2 mps 723 mmHg 69%
    23:00 +24°C° 0 mm 3 mps 724 mmHg 74%

    21 November, Wednesday

    Time Temperature Precipitation Wind Pressure Humidity
    00:00 +22°C° 0 mm 3 mps 723 mmHg 77%
    01:00 +22°C° 0 mm 3 mps 723 mmHg 80%
    02:00 +21°C° 0 mm 3 mps 723 mmHg 83%
    03:00 +20°C° 0 mm 3 mps 723 mmHg 83%
    04:00 +20°C° 0 mm 2 mps 723 mmHg 83%
    05:00 +19°C° 0 mm 2 mps 724 mmHg 84%
    06:00 +21°C° 0 mm 3 mps 724 mmHg 78%
    07:00 +24°C° 0 mm 3 mps 725 mmHg 72%
    08:00 +25°C° 0 mm 4 mps 725 mmHg 66%
    09:00 +27°C° 0 mm 3 mps 725 mmHg 63%
    10:00 +28°C° 0 mm 3 mps 725 mmHg 60%
    11:00 +30°C° 0 mm 3 mps 724 mmHg 57%
    12:00 +30°C° 0 mm 3 mps 724 mmHg 55%
    13:00 +31°C° 0 mm 3 mps 723 mmHg 54%
    14:00 +31°C° 0 mm 3 mps 722 mmHg 53%
    15:00 +31°C° 0.1 mm 3 mps 722 mmHg 57%
    16:00 +30°C° 0.1 mm 3 mps 722 mmHg 61%
    17:00 +29°C° 0.1 mm 3 mps 721 mmHg 65%
    18:00 +28°C° 0.1 mm 3 mps 722 mmHg 71%
    19:00 +26°C° 0.1 mm 3 mps 722 mmHg 78%
    20:00 +24°C° 0.1 mm 3 mps 722 mmHg 84%
    21:00 +24°C° 0 mm 3 mps 722 mmHg 83%
    22:00 +22°C° 0 mm 3 mps 723 mmHg 83%
    23:00 +22°C° 0 mm 4 mps 723 mmHg 83%

    22 November, Thursday

    Time Temperature Precipitation Wind Pressure Humidity
    00:00 +21°C° 0 mm 3 mps 722 mmHg 84%
    01:00 +21°C° 0 mm 3 mps 722 mmHg 85%
    02:00 +20°C° 0 mm 3 mps 722 mmHg 86%
    03:00 +20°C° 0 mm 3 mps 722 mmHg 87%
    04:00 +20°C° 0 mm 3 mps 722 mmHg 88%
    05:00 +20°C° 0 mm 2 mps 722 mmHg 89%
    06:00 +21°C° 0 mm 3 mps 723 mmHg 85%
    07:00 +22°C° 0 mm 3 mps 723 mmHg 82%
    08:00 +24°C° 0 mm 3 mps 723 mmHg 78%
    09:00 +25°C° 0 mm 3 mps 723 mmHg 76%
    10:00 +26°C° 0 mm 3 mps 723 mmHg 73%
    11:00 +27°C° 0 mm 3 mps 723 mmHg 71%
    12:00 +28°C° 0 mm 2 mps 722 mmHg 66%
    13:00 +30°C° 0 mm 2 mps 722 mmHg 60%
    14:00 +32°C° 0 mm 2 mps 721 mmHg 55%
    15:00 +31°C° 0 mm 1 mps 721 mmHg 57%
    16:00 +31°C° 0 mm 1 mps 721 mmHg 59%
    17:00 +30°C° 0 mm 1 mps 721 mmHg 61%
    18:00 +29°C° 0.2 mm 1 mps 721 mmHg 67%
    19:00 +27°C° 0.2 mm 1 mps 721 mmHg 74%
    20:00 +25°C° 0.2 mm 1 mps 722 mmHg 80%
    21:00 +25°C° 0.1 mm 1 mps 722 mmHg 83%
    22:00 +24°C° 0.1 mm 1 mps 722 mmHg 85%
    23:00 +24°C° 0.1 mm 2 mps 722 mmHg 87%

    23 November, Friday

    Time Temperature Precipitation Wind Pressure Humidity
    00:00 +24°C° 0 mm 2 mps 721 mmHg 89%
    01:00 +23°C° 0 mm 2 mps 721 mmHg 90%
    02:00 +23°C° 0 mm 2 mps 721 mmHg 92%
    03:00 +23°C° 0 mm 2 mps 721 mmHg 93%
    04:00 +23°C° 0 mm 2 mps 721 mmHg 94%
    05:00 +21°C° 0 mm 2 mps 722 mmHg 95%
    06:00 +24°C° 0 mm 2 mps 722 mmHg 89%
    07:00 +26°C° 0 mm 3 mps 723 mmHg 82%
    08:00 +27°C° 0 mm 3 mps 723 mmHg 75%
    09:00 +28°C° 0.4 mm 3 mps 723 mmHg 71%
    10:00 +30°C° 0.4 mm 3 mps 723 mmHg 67%
    11:00 +31°C° 0.4 mm 3 mps 722 mmHg 62%
    12:00 +31°C° 0.9 mm 2 mps 722 mmHg 61%
    13:00 +31°C° 0.9 mm 2 mps 721 mmHg 60%
    14:00 +32°C° 0.9 mm 1 mps 721 mmHg 59%
    15:00 +31°C° 1.4 mm 1 mps 721 mmHg 64%
    16:00 +30°C° 1.4 mm 1 mps 721 mmHg 69%
    17:00 +29°C° 1.4 mm 1 mps 721 mmHg 74%
    18:00 +28°C° 0.1 mm 1 mps 721 mmHg 77%
    19:00 +26°C° 0.1 mm 1 mps 721 mmHg 81%
    20:00 +25°C° 0.1 mm 1 mps 721 mmHg 84%
    21:00 +25°C° 0 mm 1 mps 721 mmHg 85%
    22:00 +24°C° 0 mm 1 mps 721 mmHg 87%
    23:00 +24°C° 0 mm 2 mps 721 mmHg 88%
    Show more